User: anonymous   Login
Location: Unspecified
(0.0000°N, 0.0000°E)
Time: 19:14:49
(UTC+00:00)
Language:

MUOS 2 - Orbit

View from above orbital plane
View from above orbital plane
View from above satellite
View from above satellite

Ground track
Ground track

The orbit data is extracted from the following two-line orbital elements,

1 39206U 13036A   23273.55569802  .00000056  00000-0  00000+0 0  9990
2 39206   3.2179  35.9772 0058183 178.2330 177.8789  1.00274038 37378
Epoch (UTC): 30 September 2023 13:20:12
Eccentricity: 0.0058183
inclination: 3.2179°
perigee height: 35540 km
apogee height: 36031 km
right ascension of ascending node: 35.9772°
argument of perigee: 178.2330°
revolutions per day: 1.00274038
mean anomaly at epoch: 177.8789°
orbit number at epoch: 3737

The dashed part of the orbit path shows where the satellite is in the earth's shadow,  

DLR